• In Belarus
  • List of Countries
  • For 7 days
  • Water Temperature
  • Satellite Maps
  • Weather Map
  • Weather Widgets
  • user-avatar
    Login

    Hourly Weather Yaremcha

    Today, 18 October, Wednesday

    Time Temperature Precipitation Wind Pressure Humidity
    00:00 +11°C° 0 mm 1 mps 712 mmHg 72%
    01:00 +11°C° 0 mm 1 mps 712 mmHg 71%
    02:00 +10°C° 0 mm 1 mps 711 mmHg 73%
    03:00 +11°C° 0 mm 1 mps 711 mmHg 73%
    04:00 +11°C° 0 mm 1 mps 711 mmHg 73%
    05:00 +11°C° 0 mm 1 mps 710 mmHg 73%
    06:00 +11°C° 0 mm 1 mps 710 mmHg 72%
    07:00 +12°C° 0 mm 1 mps 710 mmHg 72%
    08:00 +13°C° 0 mm 1 mps 710 mmHg 67%
    09:00 +16°C° 0 mm 1 mps 710 mmHg 59%
    10:00 +19°C° 0 mm 1 mps 710 mmHg 51%
    11:00 +22°C° 0 mm 1 mps 710 mmHg 43%
    12:00 +23°C° 0 mm 1 mps 710 mmHg 40%
    13:00 +23°C° 0 mm 1 mps 710 mmHg 38%
    14:00 +24°C° 0 mm 2 mps 710 mmHg 36%
    15:00 +22°C° 0 mm 1 mps 710 mmHg 43%
    16:00 +21°C° 0 mm 1 mps 709 mmHg 50%
    17:00 +19°C° 0 mm 1 mps 708 mmHg 57%
    18:00 +16°C° 0 mm 1 mps 708 mmHg 59%
    19:00 +15°C° 0 mm 1 mps 708 mmHg 62%
    20:00 +14°C° 0 mm 1 mps 708 mmHg 64%
    21:00 +14°C° 0 mm 1 mps 708 mmHg 64%
    22:00 +13°C° 0 mm 1 mps 708 mmHg 63%
    23:00 +13°C° 0 mm 1 mps 708 mmHg 63%

    Tomorrow, 19 October, Thursday

    Time Temperature Precipitation Wind Pressure Humidity
    00:00 +13°C° 0 mm 1 mps 708 mmHg 62%
    01:00 +13°C° 0 mm 1 mps 707 mmHg 62%
    02:00 +12°C° 0 mm 1 mps 707 mmHg 61%
    03:00 +12°C° 0 mm 1 mps 707 mmHg 62%
    04:00 +12°C° 0 mm 1 mps 707 mmHg 62%
    05:00 +12°C° 0 mm 1 mps 707 mmHg 62%
    06:00 +12°C° 0 mm 1 mps 707 mmHg 63%
    07:00 +13°C° 0 mm 1 mps 707 mmHg 63%
    08:00 +13°C° 0 mm 1 mps 707 mmHg 63%
    09:00 +15°C° 0 mm 1 mps 707 mmHg 57%
    10:00 +19°C° 0 mm 1 mps 708 mmHg 50%
    11:00 +21°C° 0 mm 1 mps 708 mmHg 44%
    12:00 +20°C° 0 mm 2 mps 708 mmHg 41%
    13:00 +21°C° 0 mm 2 mps 708 mmHg 38%
    14:00 +21°C° 0 mm 2 mps 708 mmHg 36%
    15:00 +20°C° 0 mm 2 mps 707 mmHg 42%
    16:00 +19°C° 0 mm 1 mps 707 mmHg 48%
    17:00 +16°C° 0 mm 1 mps 707 mmHg 54%
    18:00 +15°C° 0 mm 1 mps 707 mmHg 59%
    19:00 +14°C° 0 mm 1 mps 707 mmHg 63%
    20:00 +12°C° 0 mm 1 mps 707 mmHg 68%
    21:00 +12°C° 0 mm 1 mps 707 mmHg 69%
    22:00 +11°C° 0 mm 1 mps 707 mmHg 71%
    23:00 +11°C° 0 mm 1 mps 707 mmHg 72%

    Day after tomorrow, 20 October, Friday

    Time Temperature Precipitation Wind Pressure Humidity
    00:00 +11°C° 0 mm 1 mps 707 mmHg 73%
    01:00 +10°C° 0 mm 1 mps 707 mmHg 74%
    02:00 +10°C° 0 mm 1 mps 707 mmHg 75%
    03:00 +10°C° 0 mm 1 mps 707 mmHg 76%
    04:00 +10°C° 0 mm 1 mps 707 mmHg 77%
    05:00 +9°C° 0 mm 1 mps 707 mmHg 78%
    06:00 +10°C° 0 mm 1 mps 707 mmHg 76%
    07:00 +10°C° 0 mm 1 mps 708 mmHg 74%
    08:00 +11°C° 0 mm 1 mps 708 mmHg 73%
    09:00 +13°C° 0 mm 1 mps 708 mmHg 65%
    10:00 +15°C° 0 mm 1 mps 709 mmHg 56%
    11:00 +18°C° 0 mm 1 mps 709 mmHg 48%
    12:00 +19°C° 0 mm 1 mps 709 mmHg 47%
    13:00 +19°C° 0 mm 1 mps 709 mmHg 46%
    14:00 +20°C° 0 mm 1 mps 709 mmHg 45%
    15:00 +18°C° 0 mm 1 mps 708 mmHg 52%
    16:00 +16°C° 0 mm 1 mps 708 mmHg 60%
    17:00 +14°C° 0 mm 1 mps 708 mmHg 68%
    18:00 +13°C° 0 mm 1 mps 708 mmHg 73%
    19:00 +12°C° 0 mm 1 mps 708 mmHg 78%
    20:00 +9°C° 0 mm 0 mps 709 mmHg 84%
    21:00 +10°C° 0 mm 1 mps 709 mmHg 85%
    22:00 +10°C° 0 mm 1 mps 709 mmHg 86%
    23:00 +10°C° 0 mm 1 mps 709 mmHg 87%

    21 October, Saturday

    Time Temperature Precipitation Wind Pressure Humidity
    00:00 +9°C° 0 mm 1 mps 709 mmHg 87%
    01:00 +9°C° 0 mm 1 mps 709 mmHg 88%
    02:00 +9°C° 0 mm 1 mps 709 mmHg 88%
    03:00 +9°C° 0 mm 1 mps 709 mmHg 89%
    04:00 +8°C° 0 mm 1 mps 709 mmHg 89%
    05:00 +8°C° 0 mm 1 mps 709 mmHg 89%
    06:00 +8°C° 0 mm 1 mps 709 mmHg 87%
    07:00 +9°C° 0 mm 1 mps 710 mmHg 85%
    08:00 +9°C° 0 mm 1 mps 710 mmHg 83%
    09:00 +11°C° 0 mm 1 mps 710 mmHg 75%
    10:00 +13°C° 0 mm 1 mps 710 mmHg 67%
    11:00 +16°C° 0 mm 2 mps 711 mmHg 59%
    12:00 +16°C° 0 mm 2 mps 711 mmHg 58%
    13:00 +16°C° 0 mm 2 mps 710 mmHg 57%
    14:00 +17°C° 0 mm 2 mps 710 mmHg 55%
    15:00 +15°C° 0 mm 2 mps 710 mmHg 62%
    16:00 +14°C° 0 mm 2 mps 709 mmHg 70%
    17:00 +13°C° 0 mm 1 mps 709 mmHg 77%
    18:00 +12°C° 0 mm 1 mps 709 mmHg 81%
    19:00 +11°C° 0 mm 1 mps 709 mmHg 85%
    20:00 +9°C° 0 mm 1 mps 709 mmHg 89%
    21:00 +9°C° 0 mm 1 mps 709 mmHg 88%
    22:00 +9°C° 0 mm 1 mps 709 mmHg 87%
    23:00 +9°C° 0 mm 1 mps 709 mmHg 86%

    22 October, Sunday

    Time Temperature Precipitation Wind Pressure Humidity
    00:00 +9°C° 0 mm 1 mps 709 mmHg 85%
    01:00 +8°C° 0 mm 1 mps 709 mmHg 84%
    02:00 +8°C° 0 mm 1 mps 709 mmHg 83%
    03:00 +8°C° 0 mm 1 mps 708 mmHg 84%
    04:00 +8°C° 0 mm 1 mps 708 mmHg 84%
    05:00 +8°C° 0 mm 1 mps 708 mmHg 85%
    06:00 +8°C° 0 mm 1 mps 708 mmHg 83%
    07:00 +9°C° 0 mm 1 mps 708 mmHg 82%
    08:00 +9°C° 0 mm 1 mps 708 mmHg 80%
    09:00 +11°C° 0 mm 1 mps 708 mmHg 72%
    10:00 +14°C° 0 mm 1 mps 708 mmHg 64%
    11:00 +16°C° 0 mm 1 mps 708 mmHg 55%
    12:00 +16°C° 0 mm 1 mps 708 mmHg 54%
    13:00 +17°C° 0 mm 2 mps 708 mmHg 52%
    14:00 +18°C° 0 mm 2 mps 707 mmHg 50%
    15:00 +16°C° 0 mm 1 mps 707 mmHg 56%
    16:00 +15°C° 0 mm 1 mps 706 mmHg 63%
    17:00 +13°C° 0 mm 1 mps 706 mmHg 69%
    18:00 +12°C° 0 mm 1 mps 706 mmHg 72%
    19:00 +12°C° 0 mm 1 mps 705 mmHg 76%
    20:00 +11°C° 0 mm 1 mps 705 mmHg 79%
    21:00 +11°C° 0 mm 1 mps 705 mmHg 78%
    22:00 +11°C° 0 mm 1 mps 705 mmHg 78%
    23:00 +10°C° 0 mm 1 mps 705 mmHg 78%

    23 October, Monday

    Time Temperature Precipitation Wind Pressure Humidity
    00:00 +10°C° 0.1 mm 1 mps 705 mmHg 79%
    01:00 +10°C° 0.1 mm 1 mps 704 mmHg 80%
    02:00 +10°C° 0.1 mm 1 mps 704 mmHg 81%
    03:00 +10°C° 0 mm 1 mps 704 mmHg 82%
    04:00 +10°C° 0 mm 1 mps 703 mmHg 83%
    05:00 +9°C° 0 mm 1 mps 703 mmHg 84%
    06:00 +9°C° 0 mm 1 mps 703 mmHg 84%
    07:00 +10°C° 0 mm 1 mps 703 mmHg 84%
    08:00 +10°C° 0 mm 1 mps 703 mmHg 84%
    09:00 +11°C° 0 mm 1 mps 703 mmHg 78%
    10:00 +13°C° 0 mm 1 mps 703 mmHg 72%
    11:00 +14°C° 0 mm 1 mps 703 mmHg 66%
    12:00 +15°C° 0 mm 1 mps 703 mmHg 65%
    13:00 +15°C° 0 mm 1 mps 703 mmHg 64%
    14:00 +15°C° 0 mm 2 mps 703 mmHg 63%
    15:00 +14°C° 0.2 mm 1 mps 703 mmHg 70%
    16:00 +13°C° 0.2 mm 1 mps 703 mmHg 77%
    17:00 +12°C° 0.2 mm 1 mps 703 mmHg 84%
    18:00 +12°C° 0.4 mm 1 mps 703 mmHg 87%
    19:00 +11°C° 0.4 mm 1 mps 703 mmHg 90%
    20:00 +11°C° 0.4 mm 1 mps 704 mmHg 93%
    21:00 +11°C° 0.5 mm 1 mps 704 mmHg 93%
    22:00 +11°C° 0.5 mm 1 mps 704 mmHg 94%
    23:00 +11°C° 0.5 mm 1 mps 705 mmHg 94%
    Show more